x

Nantucket Sound (44020) Wave Buoy

5:50 - Wed 1st Oct 2014 All times are EDT. -4 hours from GMT.

  • Sig Wave height 2.0ft
  • Swell Direction
  • Peak Period 3s
  • Average Period 3s
  • Wind
    18mph, 20mph gusts
  • Sea Temp 66°f
  • Ar Temp 63°f
  • Sea Pressure 1013.7mb
  • Nantucket Sound
  • Nantucket Sound

More Historic Weather Station data

Upgrade to MSW Pro to gain access to the past 30 days of data for over 8000 Wavebouys and Weather Stations around the globe.

Join Pro

Comparision Forecast

View Surf forecast
   
Qua 10/01 5:50 2ft 3s 3s 18 20 mph 1013.7mb 66f 63f
4:50 2.5ft 4s 3s 18 22 mph 1013.7mb 66f 63f
3:50 2.5ft 4s 3s 20 22 mph 1013.5mb 66f 63f
2:50 2ft 4s 3s 18 22 mph 1013.8mb 66f 63f
1:50 1.6ft 3s 3s 20 22 mph 1014.2mb 66f 63f
12:50 1.6ft 3s 3s 16 18 mph 1014.4mb 65f 63f
Ter 09/30 11:50 1.6ft 3s 3s 16 18 mph 1014.5mb 65f 63f
10:50 1.6ft 3s 3s 16 18 mph 1014.5mb 64f 62f
9:50 1.6ft 3s 3s 16 18 mph 1014.6mb 64f 62f
8:50 2ft 3s 3s 16 20 mph 1014.5mb 65f 62f
7:50 1.6ft 3s 3s 18 20 mph 1014.2mb 65f 62f
6:50 1.6ft 3s 3s 16 18 mph 1014.4mb 66f 62f
5:50 1.6ft 3s 3s 16 18 mph 1013.9mb 67f 62f
4:50 1.6ft 3s 3s 18 20 mph 1013.5mb 67f 62f
3:50 1.6ft 3s 3s 16 18 mph 1013.7mb 67f 63f
2:50 1.6ft 3s 3s 13
mph
1014.3mb 66f 63f
1:50 1.3ft 3s 3s 16 18 mph 1014mb 66f 62f
12:50 1.3ft 3s 3s 13 16 mph 1014.9mb 66f 62f
11:50 1.3ft 3s 3s 13 16 mph 1015.3mb 65f 63f
10:50 1.3ft 6s 3s 11 13 mph 1015.7mb 65f 62f
9:50 1.3ft 3s 3s 11 13 mph 1015.9mb 64f 62f
8:50 1.3ft 3s 3s 13 18 mph 1015.2mb 65f 62f
7:50 1.3ft 3s 3s 11 13 mph 1015.4mb 65f 62f
6:50 1.3ft 3s 3s 11 13 mph 1015.1mb 66f 62f
5:50 1.3ft 3s 3s 11 13 mph 1014.4mb 66f 62f
4:50 1.3ft 3s 3s 11 13 mph 1014.3mb 67f 62f
3:50 1.3ft 3s 3s 13 18 mph 1014mb 67f 62f
2:50 1ft 2s 3s 11 13 mph 1014.5mb 67f 63f
1:50 0.7ft  -  3s 11 13 mph 1014.6mb 67f 63f
12:50 0.7ft  -  3s 11 13 mph 1014.3mb 66f 64f
Seg 09/29 11:50 0.3ft  -  3s 11
mph
1015.2mb 66f 65f
10:50 0.7ft  -  3s 4
mph
1015.1mb 66f 65f
9:50 0.7ft  -  4s 4 7 mph 1014.5mb 65f 65f
8:50 0.3ft  -  4s 2 4 mph 1014.6mb 65f 65f
7:50 0.3ft  -  4s 2
mph
1014.6mb 66f 67f
6:50 0.7ft  -  3s 4
mph
1014.2mb 67f 67f
5:50 0.7ft  -  3s 9 11 mph 1014mb 67f 67f
4:50 0.7ft  -  4s 7 9 mph 1013.8mb 67f 67f
3:50 0.7ft  -  4s 11 13 mph 1013.7mb 67f 67f
2:50 0.7ft  -  3s 9 11 mph 1013.9mb 67f 67f
1:50 0.7ft  -  3s 11
mph
1014.2mb 67f 67f
12:50 0.7ft  -  3s 9 13 mph 1014.5mb 67f 66f
11:50 0.7ft  -  3s 9 11 mph 1014.7mb 67f 66f
10:50 1ft 3s 3s 13
mph
1014.8mb 66f 67f
9:50 1ft 3s 3s 13 16 mph 1015.1mb 66f 67f
8:50 1.3ft 3s 3s 11 13 mph 1015.3mb 66f 66f
7:50 1.3ft 3s 3s 13 16 mph 1015.1mb 66f 67f
6:50 1ft 3s 3s 13 18 mph 1014.6mb 66f 66f
5:50 1ft 3s 3s 13 16 mph 1014.6mb 66f 67f
4:50 1ft 3s 3s 11 16 mph 1014.8mb 66f 67f
3:50 1ft 3s 3s 13 16 mph 1014.9mb 66f 67f
2:50 1ft 2s 3s 13
mph
1015.3mb 67f 67f
1:50 1ft 3s 3s 13 16 mph 1015.8mb 67f 67f
12:50 1ft 2s 3s 13 16 mph 1015.9mb 66f 67f
Dom 09/28 11:50 1ft 3s 3s 13 16 mph 1016.3mb 66f 67f
10:50 1ft 3s 3s 16
mph
1016.5mb 65f 67f
9:50 1ft 2s 3s 13 18 mph 1016.7mb 65f 67f
8:50 1ft 2s 3s 13 16 mph 1017.1mb 65f 67f
7:50 1ft 2s 3s 13 16 mph 1017.3mb 65f 67f
6:50 1ft 3s 3s 11 13 mph 1017.2mb 66f 67f
5:50 1ft 3s 3s 13 16 mph 1017mb 67f 67f
4:50 1ft 3s 3s 13 16 mph 1017.2mb 67f 67f
3:50 1.3ft 3s 3s 13 16 mph 1017.6mb 68f 68f
2:50 1ft 2s 3s 13 18 mph 1018.1mb 68f 67f
1:50 0.7ft  -  3s 13 16 mph 1018.6mb 68f 67f
12:50 0.3ft  -  4s 11 13 mph 1019.3mb 67f 67f
11:50 0.3ft  -  4s 11
mph
1020mb 67f 67f
10:50 0.7ft  -  4s 9
mph
1020.7mb 66f 67f
9:50 0.7ft  -  4s 9
mph
1021.2mb 65f 67f
8:50 0.7ft  -  4s 9
mph
1021.7mb 64f 66f
7:50 0.7ft  -  4s 4 7 mph 1021.6mb 64f 66f
6:50 0.7ft  -  4s 7
mph
1021.6mb 65f 65f
5:50 0.7ft  -  4s 7
mph
1021.3mb 65f 65f
4:50 0.7ft  -  4s 4 7 mph 1021.1mb 66f 65f
3:50 1ft 7s 4s 4
mph
1020.9mb 66f 66f
2:50 1ft 7s 5s 4
mph
1021.1mb 66f 66f
1:50 0.7ft  -  5s 4
mph
1021.5mb 66f 66f
12:50 0.3ft  -  5s 2
mph
1021.5mb 66f 66f
Sáb 09/27 11:50 0.3ft  -  4s 2
mph
1021.5mb 66f 67f
10:50 0.3ft  -  4s 2 4 mph 1021.7mb 66f 66f
9:50 0.7ft  -  4s 7
mph
1021.8mb 66f 67f
8:50 0.7ft  -  4s 7
mph
1021.4mb 65f 67f
7:50 0.7ft  -  4s 7
mph
1021.1mb 65f 66f
6:50 0.7ft  -  4s 4
mph
1020.7mb 65f 66f
5:50 0.7ft  -  4s 2 4 mph 1020.5mb 66f 67f
4:50 1ft 6s 4s 4 7 mph 1020.5mb 67f 69f
3:50 1ft 6s 4s 2 4 mph 1020.6mb 68f 70f
2:50 1.3ft 6s 4s 2 4 mph 1020.6mb 68f 69f
1:50 1ft 6s 4s 7
mph
1020.6mb 67f 69f
12:50 1ft 4s 3s 7
mph
1021.2mb 67f 67f
11:50 1ft 2s 3s 9 11 mph 1021.4mb 67f 67f